(2020 VO1) |
Classification: Apollo [NEO] SPK-ID: 54087577 |
[ hide orbit diagram ]
For accurate long-term ephemerides, please instead use our Horizons system.This orbit viewer was implemented using two-body methods, and hence should not be used for determining accurate long-term trajectories (over several years or decades) or planetary encounter circumstances.
Orbital Elements at Epoch 2459000.5 (2020-May-31.0) TDB
Reference: JPL 10 (heliocentric ecliptic J2000)
Element | Value | Uncertainty (1-sigma) | Units |
e | .2375173801503352 | 0.00011058 | |
a | 1.030890609901233 | 6.0074e-05 | au |
q | .7860361730159112 | 6.82e-05 | au |
i | 2.31632494974295 | 0.0025174 | deg |
node | 226.3746492232649 | 0.0011135 | deg |
peri | 83.91374257387022 | 0.0036859 | deg |
M | 276.5323219873783 | 0.001907 | deg |
tp | 2459089.140691172743 (2020-Aug-27.64069117) | 0.0097721 | TDB |
period | 382.3114477601985 1.05 | 0.033418 9.149e-05 | d yr |
n | .9416406495517938 | 8.231e-05 | deg/d |
Q | 1.275745046786555 | 7.4343e-05 | au |
|
| | Orbit Determination Parameters
Additional Information
|
[ show covariance matrix ]
Physical Parameter Table
Parameter |
Symbol |
Value |
Units |
Sigma |
Reference |
Notes |
absolute magnitude |
H |
28.005 |
|
.3548 |
10 |
autocmod 2.8 |
|
[ show close-approach data ]
|